Time,TemperatureF,DewpointF,PressureIn,WindDirection,WindDirectionDegrees,WindSpeedMPH,WindSpeedGustMPH,Humidity,HourlyPrecipIn,Conditions,Clouds,dailyrainin,SoftwareType,DateUTC
2013-03-22 00:10:00,31.0,21.0,30.03,ESE,105,6.0,7.0,66,0.00,,,0.00,weatherlink.com 1.10,2013-03-22 05:10:00,
2013-03-22 00:25:00,30.9,21.0,30.03,SE,127,4.0,7.0,66,0.00,,,0.00,weatherlink.com 1.10,2013-03-22 05:25:00,
2013-03-22 00:40:00,30.9,20.0,30.03,ESE,108,6.0,6.0,65,0.00,,,0.00,weatherlink.com 1.10,2013-03-22 05:40:00,
2013-03-22 00:55:00,30.8,20.0,30.03,ESE,118,3.0,6.0,65,0.00,,,0.00,weatherlink.com 1.10,2013-03-22 05:55:00,
2013-03-22 01:10:00,30.8,21.0,30.03,ESE,120,4.0,7.0,66,0.00,,,0.00,weatherlink.com 1.10,2013-03-22 06:10:00,
2013-03-22 01:25:00,30.6,21.0,30.03,SE,145,2.0,7.0,67,0.00,,,0.00,weatherlink.com 1.10,2013-03-22 06:25:00,
2013-03-22 01:40:00,30.4,21.0,30.03,ESE,105,4.0,5.0,68,0.00,,,0.00,weatherlink.com 1.10,2013-03-22 06:40:00,
2013-03-22 01:55:00,30.5,21.0,30.03,ESE,115,5.0,6.0,68,0.00,,,0.00,weatherlink.com 1.10,2013-03-22 06:55:00,
2013-03-22 02:10:00,30.8,21.0,30.03,ESE,112,3.0,5.0,68,0.00,,,0.00,weatherlink.com 1.10,2013-03-22 07:10:00,
2013-03-22 02:25:00,30.8,22.0,30.04,ESE,122,3.0,4.0,69,0.00,,,0.00,weatherlink.com 1.10,2013-03-22 07:25:00,
2013-03-22 02:42:00,30.8,21.0,30.04,ESE,116,3.0,6.0,68,0.00,,,0.00,weatherlink.com 1.10,2013-03-22 07:42:00,
2013-03-22 02:54:00,30.8,22.0,30.04,SE,124,3.0,4.0,69,0.00,,,0.00,weatherlink.com 1.10,2013-03-22 07:54:00,
2013-03-22 03:09:00,30.8,22.0,30.04,ESE,117,3.0,5.0,70,0.00,,,0.00,weatherlink.com 1.10,2013-03-22 08:09:00,
2013-03-22 03:24:00,30.8,22.0,30.04,SE,127,1.0,4.0,70,0.00,,,0.00,weatherlink.com 1.10,2013-03-22 08:24:00,
2013-03-22 03:39:00,30.8,22.0,30.03,SE,131,1.0,3.0,71,0.00,,,0.00,weatherlink.com 1.10,2013-03-22 08:39:00,
2013-03-22 03:54:00,30.6,23.0,30.02,East,95,1.0,4.0,72,0.00,,,0.00,weatherlink.com 1.10,2013-03-22 08:54:00,
2013-03-22 04:09:00,30.5,22.0,30.02,ESE,105,2.0,2.0,72,0.00,,,0.00,weatherlink.com 1.10,2013-03-22 09:09:00,
2013-03-22 04:24:00,30.4,22.0,30.02,ESE,108,1.0,2.0,72,0.00,,,0.00,weatherlink.com 1.10,2013-03-22 09:24:00,
2013-03-22 04:39:00,30.4,22.0,30.02,ESE,113,1.0,3.0,72,0.00,,,0.00,weatherlink.com 1.10,2013-03-22 09:39:00,
2013-03-22 04:54:00,30.3,23.0,30.02,East,94,0.0,2.0,73,0.00,,,0.00,weatherlink.com 1.10,2013-03-22 09:54:00,
2013-03-22 05:09:00,29.9,22.0,30.02,ENE,74,1.0,3.0,73,0.00,,,0.00,weatherlink.com 1.10,2013-03-22 10:09:00,
2013-03-22 05:25:00,29.6,22.0,30.02,ENE,57,2.0,3.0,74,0.00,,,0.00,weatherlink.com 1.10,2013-03-22 10:25:00,
2013-03-22 05:40:00,29.4,22.0,30.03,East,84,0.0,3.0,75,0.00,,,0.00,weatherlink.com 1.10,2013-03-22 10:40:00,
2013-03-22 05:55:00,29.2,23.0,30.03,ENE,73,1.0,2.0,76,0.00,,,0.00,weatherlink.com 1.10,2013-03-22 10:55:00,
2013-03-22 06:10:00,29.1,23.0,30.03,ENE,75,0.0,1.0,77,0.00,,,0.00,weatherlink.com 1.10,2013-03-22 11:10:00,
2013-03-22 06:25:00,29.0,23.0,30.03,ENE,75,1.0,3.0,77,0.00,,,0.00,weatherlink.com 1.10,2013-03-22 11:25:00,
2013-03-22 06:40:00,29.0,23.0,30.03,ESE,104,1.0,3.0,77,0.00,,,0.00,weatherlink.com 1.10,2013-03-22 11:40:00,
2013-03-22 06:55:00,29.0,23.0,30.03,East,89,1.0,3.0,77,0.00,,,0.00,weatherlink.com 1.10,2013-03-22 11:55:00,
2013-03-22 07:10:00,29.2,23.0,30.03,East,81,5.0,5.0,77,0.00,,,0.00,weatherlink.com 1.10,2013-03-22 12:10:00,
2013-03-22 07:25:00,29.3,23.0,30.04,ENE,77,1.0,2.0,77,0.00,,,0.00,weatherlink.com 1.10,2013-03-22 12:25:00,
2013-03-22 07:40:00,29.4,23.0,30.04,ESE,108,0.0,-999.0,77,-99.99,,,0.00,weatherlink.com 1.10,2013-03-22 12:40:00,
2013-03-22 07:55:00,29.7,23.0,30.05,SE,130,2.0,3.0,77,0.00,,,0.00,weatherlink.com 1.10,2013-03-22 12:55:00,
2013-03-22 08:10:00,30.2,24.0,30.05,ESE,106,2.0,3.0,76,0.00,,,0.00,weatherlink.com 1.10,2013-03-22 13:10:00,
2013-03-22 08:25:00,30.5,23.0,30.05,ENE,77,2.0,5.0,75,0.00,,,0.00,weatherlink.com 1.10,2013-03-22 13:25:00,
2013-03-22 08:40:00,31.0,24.0,30.05,ENE,68,4.0,4.0,74,0.00,,,0.00,weatherlink.com 1.10,2013-03-22 13:40:00,
2013-03-22 08:55:00,31.1,24.0,30.05,SE,125,2.0,6.0,74,0.00,,,0.00,weatherlink.com 1.10,2013-03-22 13:55:00,
2013-03-22 09:10:00,31.5,24.0,30.05,ESE,121,3.0,7.0,73,0.00,,,0.00,weatherlink.com 1.10,2013-03-22 14:10:00,
2013-03-22 09:25:00,31.7,24.0,30.06,SE,125,3.0,6.0,73,0.00,,,0.00,weatherlink.com 1.10,2013-03-22 14:25:00,
2013-03-22 09:40:00,31.9,24.0,30.06,ENE,71,0.0,3.0,73,0.00,,,0.00,weatherlink.com 1.10,2013-03-22 14:40:00,
2013-03-22 09:55:00,32.6,24.0,30.06,ESE,108,1.0,6.0,72,0.00,,,0.00,weatherlink.com 1.10,2013-03-22 14:55:00,
2013-03-22 10:10:00,33.2,25.0,30.06,SE,139,3.0,6.0,71,0.00,,,0.00,weatherlink.com 1.10,2013-03-22 15:10:00,
2013-03-22 10:25:00,34.1,25.0,30.05,ESE,113,6.0,6.0,69,0.00,,,0.00,weatherlink.com 1.10,2013-03-22 15:25:00,
2013-03-22 10:40:00,35.0,25.0,30.05,SE,127,1.0,6.0,66,0.00,,,0.00,weatherlink.com 1.10,2013-03-22 15:40:00,
2013-03-22 10:55:00,35.2,24.0,30.05,SSE,154,2.0,5.0,64,0.00,,,0.00,weatherlink.com 1.10,2013-03-22 15:55:00,
2013-03-22 11:10:00,35.7,24.0,30.05,ESE,118,1.0,7.0,62,0.00,,,0.00,weatherlink.com 1.10,2013-03-22 16:10:00,
2013-03-22 11:25:00,35.7,24.0,30.05,ESE,122,4.0,6.0,62,0.00,,,0.00,weatherlink.com 1.10,2013-03-22 16:25:00,
2013-03-22 11:40:00,36.3,23.0,30.05,East,92,5.0,8.0,60,0.00,,,0.00,weatherlink.com 1.10,2013-03-22 16:40:00,
2013-03-22 11:55:00,37.3,24.0,30.04,ENE,63,4.0,8.0,59,0.00,,,0.00,weatherlink.com 1.10,2013-03-22 16:55:00,
2013-03-22 12:10:00,38.0,23.0,30.04,SE,127,3.0,6.0,56,0.00,,,0.00,weatherlink.com 1.10,2013-03-22 17:10:00,
2013-03-22 12:25:00,38.7,23.0,30.03,SSE,158,7.0,9.0,54,0.00,,,0.00,weatherlink.com 1.10,2013-03-22 17:25:00,
2013-03-22 12:40:00,38.8,22.0,30.03,South,190,5.0,9.0,51,0.00,,,0.00,weatherlink.com 1.10,2013-03-22 17:40:00,
2013-03-22 13:10:00,38.6,23.0,30.03,SSE,149,8.0,11.0,54,0.00,,,0.00,weatherlink.com 1.10,2013-03-22 18:10:00,
2013-03-22 13:25:00,39.0,23.0,30.02,SSE,150,5.0,10.0,54,0.00,,,0.00,weatherlink.com 1.10,2013-03-22 18:25:00,
2013-03-22 13:40:00,39.3,22.0,30.01,ESE,110,6.0,-999.0,51,-99.99,,,0.00,weatherlink.com 1.10,2013-03-22 18:40:00,
2013-03-22 13:55:00,39.5,23.0,30.01,SE,139,5.0,10.0,52,0.00,,,0.00,weatherlink.com 1.10,2013-03-22 18:55:00,
2013-03-22 14:10:00,39.5,24.0,30.01,ESE,103,4.0,9.0,54,0.00,,,0.00,weatherlink.com 1.10,2013-03-22 19:10:00,
2013-03-22 14:26:00,39.9,24.0,30.00,South,184,3.0,10.0,53,0.00,,,0.00,weatherlink.com 1.10,2013-03-22 19:26:00,
2013-03-22 14:41:00,39.5,24.0,30.01,SE,143,9.0,9.0,54,0.00,,,0.00,weatherlink.com 1.10,2013-03-22 19:41:00,
2013-03-22 14:56:00,39.7,25.0,30.01,South,169,3.0,7.0,56,0.00,,,0.00,weatherlink.com 1.10,2013-03-22 19:56:00,
2013-03-22 15:11:00,39.9,25.0,30.01,East,92,4.0,6.0,56,0.00,,,0.00,weatherlink.com 1.10,2013-03-22 20:11:00,
2013-03-22 15:26:00,39.5,24.0,30.01,SSE,158,2.0,5.0,55,0.00,,,0.00,weatherlink.com 1.10,2013-03-22 20:26:00,
2013-03-22 15:41:00,39.1,24.0,30.01,ESE,107,1.0,5.0,56,0.00,,,0.00,weatherlink.com 1.10,2013-03-22 20:41:00,
2013-03-22 15:56:00,39.2,25.0,30.00,ESE,106,6.0,6.0,57,0.00,,,0.00,weatherlink.com 1.10,2013-03-22 20:56:00,
2013-03-22 16:11:00,39.5,25.0,30.00,ESE,102,2.0,6.0,56,0.00,,,0.00,weatherlink.com 1.10,2013-03-22 21:11:00,
2013-03-22 16:26:00,39.8,25.0,30.00,ESE,105,2.0,5.0,56,0.00,,,0.00,weatherlink.com 1.10,2013-03-22 21:26:00,
2013-03-22 16:41:00,39.8,25.0,30.00,East,88,3.0,5.0,56,0.00,,,0.00,weatherlink.com 1.10,2013-03-22 21:41:00,
2013-03-22 16:56:00,40.3,25.0,30.00,SE,127,3.0,6.0,55,0.00,,,0.00,weatherlink.com 1.10,2013-03-22 21:56:00,
2013-03-22 17:11:00,40.2,25.0,29.99,ENE,68,6.0,6.0,55,0.00,,,0.00,weatherlink.com 1.10,2013-03-22 22:11:00,
2013-03-22 17:26:00,39.9,25.0,29.99,SE,127,1.0,6.0,55,0.00,,,0.00,weatherlink.com 1.10,2013-03-22 22:26:00,
2013-03-22 17:41:00,40.0,25.0,29.99,East,99,3.0,5.0,55,0.00,,,0.00,weatherlink.com 1.10,2013-03-22 22:41:00,
2013-03-22 17:56:00,39.6,24.0,30.00,NE,51,2.0,4.0,55,0.00,,,0.00,weatherlink.com 1.10,2013-03-22 22:56:00,
2013-03-22 18:11:00,39.5,25.0,29.99,SE,127,1.0,4.0,56,0.00,,,0.00,weatherlink.com 1.10,2013-03-22 23:11:00,
2013-03-22 18:26:00,39.3,25.0,30.00,ENE,65,3.0,5.0,56,0.00,,,0.00,weatherlink.com 1.10,2013-03-22 23:26:00,
2013-03-22 18:56:00,38.9,25.0,30.00,ENE,65,5.0,5.0,57,0.00,,,0.00,weatherlink.com 1.10,2013-03-22 23:56:00,
2013-03-22 20:11:00,38.0,25.0,30.01,ESE,113,1.0,4.0,60,0.00,,,0.00,weatherlink.com 1.10,2013-03-23 01:11:00,
2013-03-22 20:41:00,37.7,25.0,30.02,SE,140,4.0,6.0,61,0.00,,,0.00,weatherlink.com 1.10,2013-03-23 01:41:00,
2013-03-22 20:56:00,37.6,25.0,30.02,East,88,1.0,5.0,61,0.00,,,0.00,weatherlink.com 1.10,2013-03-23 01:56:00,
2013-03-22 21:26:00,37.5,25.0,30.03,East,91,5.0,6.0,62,0.00,,,0.00,weatherlink.com 1.10,2013-03-23 02:26:00,
2013-03-22 21:41:00,37.4,25.0,30.04,ESE,115,1.0,4.0,62,0.00,,,0.00,weatherlink.com 1.10,2013-03-23 02:41:00,
2013-03-22 21:56:00,37.3,25.0,30.04,East,89,2.0,4.0,62,0.00,,,0.00,weatherlink.com 1.10,2013-03-23 02:56:00,
2013-03-22 22:11:00,37.2,26.0,30.04,ESE,119,1.0,4.0,63,0.00,,,0.00,weatherlink.com 1.10,2013-03-23 03:11:00,
2013-03-22 22:26:00,37.1,26.0,30.04,ESE,107,2.0,3.0,64,0.00,,,0.00,weatherlink.com 1.10,2013-03-23 03:26:00,
2013-03-22 22:41:00,37.0,25.0,30.04,ENE,75,2.0,4.0,63,0.00,,,0.00,weatherlink.com 1.10,2013-03-23 03:41:00,
2013-03-22 22:56:00,37.1,25.0,30.04,ESE,115,3.0,4.0,62,0.00,,,0.00,weatherlink.com 1.10,2013-03-23 03:56:00,
2013-03-22 23:11:00,37.0,25.0,30.04,ENE,72,1.0,3.0,63,0.00,,,0.00,weatherlink.com 1.10,2013-03-23 04:11:00,
2013-03-22 23:41:00,37.1,25.0,30.03,ENE,72,2.0,4.0,62,0.00,,,0.00,weatherlink.com 1.10,2013-03-23 04:41:00,
2013-03-22 23:56:00,37.1,25.0,30.04,East,101,0.0,4.0,63,0.00,,,0.00,weatherlink.com 1.10,2013-03-23 04:56:00,